This is the latest recevied weather packets stored in our database for station/object W5DNT. If no packets are shown the sender has not sent any weather packets the latest 10 day(s).
| Time | Temp. | Humidity | Pressure | Rain* | Wind** | Luminosity | Snow |
|---|---|---|---|---|---|---|---|
| 1788623121 | 29.44° C | 69% | 1013.9 hPa | 0 mm | - | - | - |
| 1788622222 | 28.89° C | 71% | 1013.9 hPa | 0 mm | - | - | - |
| 1788621314 | 28.33° C | 75% | 1014 hPa | 0 mm | - | - | - |
| 1788620411 | 27.78° C | 78% | 1014 hPa | 0.25 mm | - | - | - |
| 1788619513 | 27.22° C | 79% | 1014 hPa | 0.25 mm | - | - | - |
| 1788618605 | 26.67° C | 81% | 1014 hPa | 0.25 mm | - | - | - |
| 1788617706 | 26.11° C | 82% | 1014 hPa | 0.25 mm | - | - | - |
| 1788616801 | 25.56° C | 83% | 1013.6 hPa | 0 mm | - | - | - |
| 1788615965 | 25° C | 84% | 1013.5 hPa | 0 mm | - | - | - |
| 1788615060 | 24.44° C | 83% | 1013.6 hPa | 0 mm | - | - | - |
| 1788614157 | 23.89° C | 82% | 1013.5 hPa | 0 mm | - | - | - |
| 1788613256 | 23.33° C | 81% | 1013.3 hPa | 0 mm | - | - | - |
| 1788612357 | - | - | 1013.4 hPa | 0 mm | - | - | - |
| 1788611449 | - | - | 1013 hPa | 0 mm | - | - | - |
| 1788610546 | - | - | 1012.9 hPa | 0 mm | - | - | - |
| 1788609704 | - | - | 1012.7 hPa | 0 mm | - | - | - |
| 1788608755 | 22.78° C | 79% | 1012.5 hPa | 0 mm | - | - | - |
| 1788607846 | 23.33° C | 79% | 1012.5 hPa | 0 mm | - | - | - |
| 1788607017 | 23.33° C | 78% | 1012.4 hPa | 0 mm | - | - | - |
| 1788606036 | 23.33° C | 78% | 1012.3 hPa | 0 mm | - | - | - |
| 1788605135 | 23.33° C | 78% | 1012.3 hPa | 0 mm | - | - | - |
| 1788604237 | 23.33° C | 78% | 1012.4 hPa | 0 mm | - | - | - |
| 1788603333 | 23.89° C | 78% | 1012.3 hPa | 0 mm | - | - | - |
| 1788602430 | 23.89° C | 77% | 1012.3 hPa | 0 mm | - | - | - |
| 1788601529 | 23.89° C | 77% | 1012.3 hPa | 0 mm | - | - | - |
* Rain latest hour (hover to see other rain measurements)
** Current wind speed in m/s (hover to see current wind gust speed)